Time,TemperatureF,DewpointF,PressureIn,WindDirection,WindDirectionDegrees,WindSpeedMPH,WindSpeedGustMPH,Humidity,HourlyPrecipIn,Conditions,Clouds,dailyrainin,SoftwareType,DateUTC
2013-09-02 00:00:00,64.1,61.0,29.87,ENE,64,6.0,-999.0,90,-99.99,,,0.01,weatherlink.com 1.10,2013-09-02 07:00:00,
2013-09-02 00:17:00,64.1,61.0,29.87,ENE,61,8.0,-999.0,90,-99.99,,,0.00,weatherlink.com 1.10,2013-09-02 07:17:00,
2013-09-02 00:30:00,64.4,62.0,29.86,NE,53,4.0,-999.0,90,-99.99,,,0.00,weatherlink.com 1.10,2013-09-02 07:30:00,
2013-09-02 00:45:00,64.5,61.0,29.87,NE,49,0.0,-999.0,89,-99.99,,,0.00,weatherlink.com 1.10,2013-09-02 07:45:00,
2013-09-02 01:00:00,64.6,61.0,29.87,NE,49,0.0,-999.0,89,-99.99,,,0.00,weatherlink.com 1.10,2013-09-02 08:00:00,
2013-09-02 01:17:00,64.7,62.0,29.87,NE,49,0.0,-999.0,89,-99.99,,,0.00,weatherlink.com 1.10,2013-09-02 08:17:00,
2013-09-02 01:30:00,64.8,62.0,29.87,NE,36,2.0,-999.0,89,-99.99,,,0.00,weatherlink.com 1.10,2013-09-02 08:30:00,
2013-09-02 01:45:00,64.9,62.0,29.87,NNW,344,2.0,-999.0,89,-99.99,,,0.00,weatherlink.com 1.10,2013-09-02 08:45:00,
2013-09-02 02:00:00,64.8,62.0,29.86,NNW,347,1.0,-999.0,89,-99.99,,,0.00,weatherlink.com 1.10,2013-09-02 09:00:00,
2013-09-02 02:17:00,64.7,62.0,29.86,NNW,346,1.0,-999.0,89,-99.99,,,0.00,weatherlink.com 1.10,2013-09-02 09:17:00,
2013-09-02 02:30:00,64.6,61.0,29.86,NNW,344,3.0,-999.0,89,-99.99,,,0.00,weatherlink.com 1.10,2013-09-02 09:30:00,
2013-09-02 02:45:00,63.9,61.0,29.87,NNW,330,0.0,-999.0,89,-99.99,,,0.00,weatherlink.com 1.10,2013-09-02 09:45:00,
2013-09-02 03:00:00,63.6,60.0,29.87,North,351,0.0,-999.0,89,-99.99,,,0.00,weatherlink.com 1.10,2013-09-02 10:00:00,
2013-09-02 03:17:00,63.6,61.0,29.87,North,349,3.0,-999.0,90,-99.99,,,0.00,weatherlink.com 1.10,2013-09-02 10:17:00,
2013-09-02 03:30:00,63.4,61.0,29.86,North,350,0.0,-999.0,90,-99.99,,,0.00,weatherlink.com 1.10,2013-09-02 10:30:00,
2013-09-02 03:45:00,63.6,61.0,29.86,North,349,3.0,-999.0,90,-99.99,,,0.00,weatherlink.com 1.10,2013-09-02 10:45:00,
2013-09-02 04:00:00,62.8,60.0,29.86,North,350,1.0,-999.0,90,-99.99,,,0.00,weatherlink.com 1.10,2013-09-02 11:00:00,
2013-09-02 04:15:00,62.9,60.0,29.85,North,350,2.0,-999.0,90,-99.99,,,0.00,weatherlink.com 1.10,2013-09-02 11:15:00,
2013-09-02 04:30:00,63.1,60.0,29.85,North,5,2.0,-999.0,90,-99.99,,,0.00,weatherlink.com 1.10,2013-09-02 11:30:00,
2013-09-02 04:45:00,63.3,60.0,29.85,NW,315,3.0,-999.0,90,-99.99,,,0.00,weatherlink.com 1.10,2013-09-02 11:45:00,
2013-09-02 05:00:00,62.8,60.0,29.85,NNW,340,2.0,-999.0,89,-99.99,,,0.00,weatherlink.com 1.10,2013-09-02 12:00:00,
2013-09-02 05:17:00,62.1,59.0,29.84,NNE,33,0.0,-999.0,88,-99.99,,,0.00,weatherlink.com 1.10,2013-09-02 12:17:00,
2013-09-02 05:30:00,61.3,58.0,29.85,NNE,33,0.0,-999.0,89,-99.99,,,0.00,weatherlink.com 1.10,2013-09-02 12:30:00,
2013-09-02 05:45:00,60.5,57.0,29.84,NNE,33,0.0,-999.0,89,-99.99,,,0.00,weatherlink.com 1.10,2013-09-02 12:45:00,
2013-09-02 06:00:00,59.7,57.0,29.85,NNE,33,1.0,-999.0,90,-99.99,,,0.00,weatherlink.com 1.10,2013-09-02 13:00:00,
2013-09-02 06:17:00,59.3,56.0,29.85,NNE,33,1.0,-999.0,90,-99.99,,,0.00,weatherlink.com 1.10,2013-09-02 13:17:00,
2013-09-02 06:30:00,58.2,55.0,29.85,NNE,33,1.0,-999.0,90,-99.99,,,0.00,weatherlink.com 1.10,2013-09-02 13:30:00,
2013-09-02 06:45:00,57.9,55.0,29.86,NNE,33,0.0,-999.0,91,-99.99,,,0.00,weatherlink.com 1.10,2013-09-02 13:45:00,
2013-09-02 07:00:00,57.9,55.0,29.86,NNE,33,2.0,-999.0,91,-99.99,,,0.00,weatherlink.com 1.10,2013-09-02 14:00:00,
2013-09-02 07:17:00,58.0,56.0,29.87,NNE,33,1.0,-999.0,92,-99.99,,,0.00,weatherlink.com 1.10,2013-09-02 14:17:00,
2013-09-02 07:30:00,58.6,57.0,29.87,NNE,33,0.0,-999.0,93,-99.99,,,0.00,weatherlink.com 1.10,2013-09-02 14:30:00,
2013-09-02 07:45:00,59.2,57.0,29.88,NNE,33,1.0,-999.0,93,-99.99,,,0.00,weatherlink.com 1.10,2013-09-02 14:45:00,
2013-09-02 08:00:00,59.8,58.0,29.87,NNE,33,0.0,-999.0,94,-99.99,,,0.00,weatherlink.com 1.10,2013-09-02 15:00:00,
2013-09-02 08:18:00,60.9,59.0,29.88,NNE,33,1.0,-999.0,94,-99.99,,,0.00,weatherlink.com 1.10,2013-09-02 15:18:00,
2013-09-02 08:30:00,63.3,62.0,29.88,NNE,33,0.0,-999.0,94,-99.99,,,0.00,weatherlink.com 1.10,2013-09-02 15:30:00,
2013-09-02 08:45:00,64.6,63.0,29.88,NNE,29,1.0,-999.0,93,-99.99,,,0.00,weatherlink.com 1.10,2013-09-02 15:45:00,
2013-09-02 09:00:00,66.7,63.0,29.88,NNE,20,2.0,-999.0,89,-99.99,,,0.00,weatherlink.com 1.10,2013-09-02 16:00:00,
2013-09-02 09:17:00,67.9,63.0,29.88,West,280,2.0,-999.0,83,-99.99,,,0.00,weatherlink.com 1.10,2013-09-02 16:17:00,
2013-09-02 09:30:00,67.5,62.0,29.89,West,279,3.0,-999.0,81,-99.99,,,0.00,weatherlink.com 1.10,2013-09-02 16:30:00,
2013-09-02 09:45:00,68.0,62.0,29.89,West,279,2.0,-999.0,81,-99.99,,,0.00,weatherlink.com 1.10,2013-09-02 16:45:00,
2013-09-02 10:00:00,68.9,62.0,29.89,NW,304,2.0,-999.0,78,-99.99,,,0.00,weatherlink.com 1.10,2013-09-02 17:00:00,
2013-09-02 10:17:00,69.6,62.0,29.89,NW,317,7.0,-999.0,77,-99.99,,,0.00,weatherlink.com 1.10,2013-09-02 17:17:00,
2013-09-02 10:30:00,70.3,62.0,29.89,NW,324,5.0,-999.0,76,-99.99,,,0.00,weatherlink.com 1.10,2013-09-02 17:30:00,
2013-09-02 10:45:00,69.4,62.0,29.89,West,268,4.0,-999.0,76,-99.99,,,0.00,weatherlink.com 1.10,2013-09-02 17:45:00,
2013-09-02 11:00:00,66.5,60.0,29.90,WSW,254,1.0,-999.0,79,-99.99,,,0.00,weatherlink.com 1.10,2013-09-02 18:00:00,
2013-09-02 11:17:00,67.6,62.0,29.90,WSW,254,3.0,-999.0,81,-99.99,,,0.00,weatherlink.com 1.10,2013-09-02 18:17:00,
2013-09-02 11:30:00,66.0,60.0,29.90,WSW,257,4.0,-999.0,81,-99.99,,,0.00,weatherlink.com 1.10,2013-09-02 18:30:00,
2013-09-02 11:45:00,66.5,61.0,29.90,WSW,244,3.0,-999.0,83,-99.99,,,0.00,weatherlink.com 1.10,2013-09-02 18:45:00,
2013-09-02 12:00:00,67.9,62.0,29.90,WNW,286,3.0,-999.0,81,-99.99,,,0.00,weatherlink.com 1.10,2013-09-02 19:00:00,
2013-09-02 12:17:00,67.7,62.0,29.90,WSW,248,5.0,-999.0,81,-99.99,,,0.00,weatherlink.com 1.10,2013-09-02 19:17:00,
2013-09-02 12:29:00,68.6,63.0,29.90,West,281,3.0,-999.0,81,-99.99,,,0.00,weatherlink.com 1.10,2013-09-02 19:29:00,
2013-09-02 12:44:00,69.8,62.0,29.90,West,261,4.0,-999.0,77,-99.99,,,0.00,weatherlink.com 1.10,2013-09-02 19:44:00,
2013-09-02 12:59:00,70.3,62.0,29.90,WNW,297,5.0,-999.0,76,-99.99,,,0.00,weatherlink.com 1.10,2013-09-02 19:59:00,
2013-09-02 13:17:00,70.5,63.0,29.90,NW,318,2.0,-999.0,77,-99.99,,,0.00,weatherlink.com 1.10,2013-09-02 20:17:00,
2013-09-02 13:30:00,68.0,62.0,29.90,West,260,4.0,-999.0,80,-99.99,,,0.00,weatherlink.com 1.10,2013-09-02 20:30:00,
2013-09-02 13:45:00,68.4,62.0,29.90,WSW,258,6.0,-999.0,80,-99.99,,,0.00,weatherlink.com 1.10,2013-09-02 20:45:00,
2013-09-02 14:00:00,68.4,62.0,29.90,WSW,248,4.0,-999.0,80,-99.99,,,0.00,weatherlink.com 1.10,2013-09-02 21:00:00,
2013-09-02 14:17:00,69.0,63.0,29.90,West,274,5.0,-999.0,80,-99.99,,,0.00,weatherlink.com 1.10,2013-09-02 21:17:00,
2013-09-02 14:30:00,69.6,63.0,29.89,West,276,4.0,-999.0,79,-99.99,,,0.00,weatherlink.com 1.10,2013-09-02 21:30:00,
2013-09-02 14:45:00,70.3,64.0,29.89,WNW,301,4.0,-999.0,79,-99.99,,,0.00,weatherlink.com 1.10,2013-09-02 21:45:00,
2013-09-02 15:00:00,70.3,64.0,29.89,WNW,302,4.0,-999.0,79,-99.99,,,0.00,weatherlink.com 1.10,2013-09-02 22:00:00,
2013-09-02 15:14:00,70.6,63.0,29.88,West,264,4.0,-999.0,78,-99.99,,,0.00,weatherlink.com 1.10,2013-09-02 22:14:00,
2013-09-02 15:29:00,70.1,63.0,29.88,North,350,5.0,-999.0,79,-99.99,,,0.00,weatherlink.com 1.10,2013-09-02 22:29:00,
2013-09-02 15:44:00,69.3,63.0,29.88,NW,306,6.0,-999.0,81,-99.99,,,0.00,weatherlink.com 1.10,2013-09-02 22:44:00,
2013-09-02 15:59:00,69.9,64.0,29.88,NW,307,6.0,-999.0,81,-99.99,,,0.00,weatherlink.com 1.10,2013-09-02 22:59:00,
2013-09-02 16:14:00,69.3,64.0,29.87,NNW,328,3.0,-999.0,82,-99.99,,,0.00,weatherlink.com 1.10,2013-09-02 23:14:00,
2013-09-02 16:30:00,69.1,63.0,29.87,WNW,301,6.0,-999.0,81,-99.99,,,0.00,weatherlink.com 1.10,2013-09-02 23:30:00,
2013-09-02 16:45:00,69.3,63.0,29.87,NW,325,8.0,-999.0,81,-99.99,,,0.00,weatherlink.com 1.10,2013-09-02 23:45:00,
2013-09-02 17:00:00,70.1,64.0,29.87,North,9,7.0,-999.0,80,-99.99,,,0.00,weatherlink.com 1.10,2013-09-03 00:00:00,
2013-09-02 17:15:00,69.3,63.0,29.86,WNW,299,4.0,-999.0,81,-99.99,,,0.00,weatherlink.com 1.10,2013-09-03 00:15:00,
2013-09-02 17:30:00,69.2,63.0,29.86,NNW,331,9.0,-999.0,80,-99.99,,,0.00,weatherlink.com 1.10,2013-09-03 00:30:00,
2013-09-02 17:45:00,70.0,64.0,29.86,NW,315,6.0,-999.0,80,-99.99,,,0.00,weatherlink.com 1.10,2013-09-03 00:45:00,
2013-09-02 18:00:00,71.0,63.0,29.86,NW,323,6.0,-999.0,77,-99.99,,,0.00,weatherlink.com 1.10,2013-09-03 01:00:00,
2013-09-02 18:14:00,69.3,63.0,29.86,NNW,329,9.0,-999.0,80,-99.99,,,0.00,weatherlink.com 1.10,2013-09-03 01:14:00,
2013-09-02 18:30:00,66.3,62.0,29.86,NW,317,5.0,-999.0,85,-99.99,,,0.00,weatherlink.com 1.10,2013-09-03 01:30:00,
2013-09-02 18:45:00,65.9,62.0,29.86,NW,309,7.0,-999.0,87,-99.99,,,0.00,weatherlink.com 1.10,2013-09-03 01:45:00,
2013-09-02 19:00:00,65.4,62.0,29.86,NNW,346,4.0,-999.0,87,-99.99,,,0.00,weatherlink.com 1.10,2013-09-03 02:00:00,
2013-09-02 19:15:00,65.2,61.0,29.86,North,5,0.0,-999.0,87,-99.99,,,0.00,weatherlink.com 1.10,2013-09-03 02:15:00,
2013-09-02 19:30:00,64.8,61.0,29.86,NNW,340,5.0,-999.0,87,-99.99,,,0.00,weatherlink.com 1.10,2013-09-03 02:30:00,
2013-09-02 19:45:00,64.4,61.0,29.86,NNW,329,8.0,-999.0,89,-99.99,,,0.00,weatherlink.com 1.10,2013-09-03 02:45:00,
2013-09-02 20:00:00,63.8,61.0,29.86,North,355,4.0,-999.0,89,-99.99,,,0.00,weatherlink.com 1.10,2013-09-03 03:00:00,
2013-09-02 20:15:00,63.1,60.0,29.86,NNE,13,4.0,-999.0,90,-99.99,,,0.00,weatherlink.com 1.10,2013-09-03 03:15:00,
2013-09-02 20:30:00,62.4,60.0,29.87,North,5,2.0,-999.0,90,-99.99,,,0.00,weatherlink.com 1.10,2013-09-03 03:30:00,
2013-09-02 20:45:00,61.6,59.0,29.87,North,5,4.0,-999.0,90,-99.99,,,0.00,weatherlink.com 1.10,2013-09-03 03:45:00,
2013-09-02 21:00:00,60.7,58.0,29.87,NE,34,4.0,-999.0,89,-99.99,,,0.00,weatherlink.com 1.10,2013-09-03 04:00:00,
2013-09-02 21:15:00,60.1,57.0,29.88,NE,34,2.0,-999.0,89,-99.99,,,0.00,weatherlink.com 1.10,2013-09-03 04:15:00,
2013-09-02 21:30:00,59.6,56.0,29.88,NE,34,3.0,-999.0,88,-99.99,,,0.00,weatherlink.com 1.10,2013-09-03 04:30:00,
2013-09-02 21:45:00,58.7,55.0,29.88,NE,34,3.0,-999.0,88,-99.99,,,0.00,weatherlink.com 1.10,2013-09-03 04:45:00,
2013-09-02 22:00:00,58.2,55.0,29.88,NE,34,2.0,-999.0,88,-99.99,,,0.00,weatherlink.com 1.10,2013-09-03 05:00:00,
2013-09-02 22:15:00,57.7,55.0,29.89,NE,34,2.0,-999.0,89,-99.99,,,0.00,weatherlink.com 1.10,2013-09-03 05:15:00,
2013-09-02 22:29:00,57.5,54.0,29.89,NE,34,3.0,-999.0,89,-99.99,,,0.00,weatherlink.com 1.10,2013-09-03 05:29:00,
2013-09-02 22:44:00,57.3,54.0,29.88,NE,34,1.0,-999.0,89,-99.99,,,0.00,weatherlink.com 1.10,2013-09-03 05:44:00,
2013-09-02 22:59:00,57.2,54.0,29.88,NE,34,3.0,-999.0,90,-99.99,,,0.00,weatherlink.com 1.10,2013-09-03 05:59:00,
2013-09-02 23:14:00,56.8,55.0,29.88,NE,34,4.0,-999.0,92,-99.99,,,0.00,weatherlink.com 1.10,2013-09-03 06:14:00,
2013-09-02 23:29:00,56.4,53.0,29.88,NE,34,3.0,-999.0,89,-99.99,,,0.00,weatherlink.com 1.10,2013-09-03 06:29:00,
2013-09-02 23:44:00,55.9,53.0,29.88,NE,34,4.0,-999.0,90,-99.99,,,0.00,weatherlink.com 1.10,2013-09-03 06:44:00,
2013-09-02 23:59:00,56.4,54.0,29.89,NE,34,4.0,-999.0,91,-99.99,,,0.00,weatherlink.com 1.10,2013-09-03 06:59:00,